Main page
METAR-TAF:

METAR-TAF

Airports :

Lleida-Alguaire

Lleida, Spain

latitude: 41-43-40N, longitude: 000-32-09E, elevation: 350 m

Current weather observation

The report was made 15 minutes ago, at 03:30 UTC
Wind 6 kt from the Northeast
Temperature 23°C
Humidity 69%
Pressure 1009 hPa
Visibility 10 km or more
Broken clouds at a height of 3600 ft
Broken clouds at a height of 4500 ft

METAR: LEDA 150330Z AUTO 05006KT 9999 BKN036 BKN045 23/17 Q1009

Time: 05:45 (03:45 UTC)


TAF: missing

Weather observations and forecasts of more than 4000 airports (METAR and TAF reports).

The available stations are represented by yellow and red dots on the map.

Hover mouse over dot to see the name of the station.

Then click to see weather observations and forecasts.

To change the map : click on the green buttons with a black cross to zoom in, on the green button with a dash to zoom out, or on the green arrows for adjacent maps.


METAR-TAF: